CZ-4C R/B, 59729

Orbit data source: Space-Track

CZ-4C R/B, 59729 is space debris in SSO originally from a launch on Sat, 11 May 2024 UTC launched from the Jiuquan Satellite Launch Center, China (JSC). Debris objects in space refer to the collection of defunct objects orbiting the Earth. Examples of debris include non-operational satellites, rocket bodies, and fragments generated from explosions, collisions, or faulty payload assembly.

Loading next visibility...
Identifier
59729, 2024-089B
Orbit
SSO
Country
Flag of CNCN / PRC
Related business
Manufacturer
SAST
Mission
Spacecraft
Bus & Motor
CZ-4 STAGE 3, Unknown motor
Mass
~1,000 kg wet, ~1,000 kg dry
Launch date (UTC)
2024-05-11 (2 years ago)
Launch vehicle
Unknown
Launch site
Jiuquan Satellite Launch Center, China (JSC)
Object type
Payload
Rocket body
Debris
Shape & HBR
Cyl, 2.5 m
Radar Cross Section
14.536 m², Large (>1 m²)

Expand to show TLE details & history
Last TLE update: 10 hours ago

TLE from 10 hours ago
0 CZ-4C R/B
1 59729U 24089B   26178.36138937  .00007900  00000-0  23778-3 0  9995
2 59729  97.6979 221.2918 0073954 207.4522 152.2804 15.31941770118219
Epoch: 2026-06-27T08:40Z
TLE epoch observation values (Epoch: 2026-06-27T08:40:24.041Z)
Latitude
-0.00006°
Longitude
175.71499°
Altitude
518.04 km
Speed
7.58 km/s
True Right ascension
14h 45m 10s
True Declination
0° 00' 00"
Sunlit
Object was in full shadow at epoch
Visualization orbit readout
Latitude
Unknown
Longitude
Unknown
Altitude
Unknown
Speed
Unknown
Apparent Right ascension
Unknown
Apparent Declination
Unknown
Sunlit
N/A
Visualization observer readout
Local Sidereal Time
06:00:03
Azimuth
Unknown
Elevation
Unknown
Doppler factor
Unknown
Orbital elements
Apogee altitude
517.604 km
Perigee altitude
416.359 km
Semi-major axis
6,845.119 km
Eccentricity
0.0074
Inclination
97.6979°
RAAN
221.2918°
Arg. of periapsis
207.4522°
True anomaly
152.67138°
Mean anomaly
152.2804°
Eccentric anomaly
152.47621°
Mean motion
3.83241 °/min
Orbital period
93.94 mins
BSTAR
0.00023778
Loading maneuver chart data...
Computing Atmospheric mass density...
Loading historical data...
Loading historical data...
Loading historical data...
Loading historical data...
Loading historical data...
Loading historical data...
Loading historical data...
Other satellites on launch #89 in the year 2024 (2024-05-11 UTC)

Documentation

Showing up to 5 results
|